THORAD AGENA D DEB, 4739

Orbit data source: Space-Track

THORAD AGENA D DEB, 4739 is space debris in SSO originally from a launch on Wed, 08 Apr 1970 UTC launched from the Air Force Western Test Range (AFWTR). Debris objects in space refer to the collection of defunct objects orbiting the Earth. Examples of debris include non-operational satellites, rocket bodies, and fragments generated from explosions, collisions, or faulty payload assembly.

Loading next visibility...
Identifier
4739, 1970-025CN
Orbit
SSO
Country
Flag of USUS
Related business
Manufacturer
Unknown
Mission
Spacecraft
Bus & Motor
Unknown
Mass
Unknown
Launch date (UTC)
1970-04-08 (56 years ago)
Launch vehicle
Unknown
Launch site
Air Force Western Test Range (AFWTR)
Object type
Payload
Rocket body
Debris
Shape & HBR
Unknown shape, 0.1 m
Radar Cross Section
Small (<0.1 m²)

Expand to show TLE details & history
Last TLE update: 7 hours ago

TLE from 7 hours ago
0 THORAD AGENA D DEB
1  4739U 70025CN  26124.14397421  .00001777  00000-0  12800-2 0  9998
2  4739  99.9473 349.8188 0001940 121.8189 358.9162 13.98325554808017
Epoch: 2026-05-04T03:27Z
TLE epoch observation values (Epoch: 2026-05-04T03:27:19.371Z)
Latitude
57.94482°
Longitude
-87.87287°
Altitude
907.866 km
Speed
7.404 km/s
True Right ascension
12h 23m 58s
True Declination
57° 47' 35"
Sunlit
Object was in daylight at epoch
Visualization orbit readout
Latitude
Unknown
Longitude
Unknown
Altitude
Unknown
Speed
Unknown
Apparent Right ascension
Unknown
Apparent Declination
Unknown
Sunlit
N/A
Visualization observer readout
Local Sidereal Time
18:44:38
Azimuth
Unknown
Elevation
Unknown
Doppler factor
Unknown
Orbital elements
Apogee altitude
898.261 km
Perigee altitude
895.438 km
Semi-major axis
7,274.987 km
Eccentricity
0.00019
Inclination
99.9473°
RAAN
349.8188°
Arg. of periapsis
121.8189°
True anomaly
358.91578°
Mean anomaly
358.9162°
Eccentric anomaly
358.91599°
Mean motion
3.4978 °/min
Orbital period
102.92 mins
BSTAR
0.00128
Loading maneuver chart data...
Computing Atmospheric mass density...

Documentation

Showing up to 5 results
|